Year,Month,Day,Hour,Minute,Value (Times are PST for temperature in C)
2013,05,05,00,00,13.40
2013,05,05,00,01,13.40
2013,05,05,00,02,13.40
2013,05,05,00,03,13.40
2013,05,05,00,04,13.30
2013,05,05,00,05,13.30
2013,05,05,00,06,13.30
2013,05,05,00,07,13.30
2013,05,05,00,08,13.20
2013,05,05,00,09,13.20
2013,05,05,00,10,13.20
2013,05,05,00,11,13.20
2013,05,05,00,12,13.10
2013,05,05,00,13,13.10
2013,05,05,00,14,13.10
2013,05,05,00,15,13.00
2013,05,05,00,16,13.00
2013,05,05,00,17,13.00
2013,05,05,00,18,13.00
2013,05,05,00,19,12.90
2013,05,05,00,20,12.90
2013,05,05,00,21,12.90
2013,05,05,00,22,12.80
2013,05,05,00,23,12.80
2013,05,05,00,24,12.80
2013,05,05,00,25,12.80
2013,05,05,00,26,12.80
2013,05,05,00,27,12.70
2013,05,05,00,28,12.70
2013,05,05,00,29,12.70
2013,05,05,00,30,12.70
2013,05,05,00,31,12.70
2013,05,05,00,32,12.60
2013,05,05,00,33,12.60
2013,05,05,00,34,12.60
2013,05,05,00,35,12.60
2013,05,05,00,36,12.60
2013,05,05,00,37,12.60
2013,05,05,00,38,12.50
2013,05,05,00,39,12.50
2013,05,05,00,40,12.40
2013,05,05,00,41,12.40
2013,05,05,00,42,12.40
2013,05,05,00,43,12.40
2013,05,05,00,44,12.40
2013,05,05,00,45,12.40
2013,05,05,00,46,12.40
2013,05,05,00,47,12.30
2013,05,05,00,48,12.30
2013,05,05,00,49,12.30
2013,05,05,00,50,12.30
2013,05,05,00,51,12.30
2013,05,05,00,52,12.30
2013,05,05,00,53,12.30
2013,05,05,00,54,12.30
2013,05,05,00,55,12.20
2013,05,05,00,56,12.20
2013,05,05,00,57,12.20
2013,05,05,00,58,12.20
2013,05,05,00,59,12.20
2013,05,05,01,00,12.10
2013,05,05,01,01,12.10
2013,05,05,01,02,12.10
2013,05,05,01,03,12.10
2013,05,05,01,04,12.00
2013,05,05,01,05,12.00
2013,05,05,01,06,12.00
2013,05,05,01,07,11.90
2013,05,05,01,08,11.90
2013,05,05,01,09,11.80
2013,05,05,01,10,11.80
2013,05,05,01,11,11.80
2013,05,05,01,12,11.80
2013,05,05,01,13,11.70
2013,05,05,01,14,11.70
2013,05,05,01,15,11.70
2013,05,05,01,16,11.60
2013,05,05,01,17,11.60
2013,05,05,01,18,11.60
2013,05,05,01,19,11.60
2013,05,05,01,20,11.60
2013,05,05,01,21,11.60
2013,05,05,01,22,11.50
2013,05,05,01,23,11.50
2013,05,05,01,24,11.50
2013,05,05,01,25,11.40
2013,05,05,01,26,11.40
2013,05,05,01,27,11.40
2013,05,05,01,28,11.40
2013,05,05,01,29,11.40
2013,05,05,01,30,11.40
2013,05,05,01,31,11.40
2013,05,05,01,32,11.40
2013,05,05,01,33,11.40
2013,05,05,01,34,11.40
2013,05,05,01,35,11.40
2013,05,05,01,36,11.40
2013,05,05,01,37,11.40
2013,05,05,01,38,11.30
2013,05,05,01,39,11.30
2013,05,05,01,40,11.30
2013,05,05,01,41,11.30
2013,05,05,01,42,11.30
2013,05,05,01,43,11.20
2013,05,05,01,44,11.20
2013,05,05,01,45,11.20
2013,05,05,01,46,11.20
2013,05,05,01,47,11.20
2013,05,05,01,48,11.20
2013,05,05,01,49,11.10
2013,05,05,01,50,11.10
2013,05,05,01,51,11.10
2013,05,05,01,52,11.10
2013,05,05,01,53,11.00
2013,05,05,01,54,10.90
2013,05,05,01,55,10.90
2013,05,05,01,56,10.90
2013,05,05,01,57,10.90
2013,05,05,01,58,10.90
2013,05,05,01,59,10.90
2013,05,05,02,00,10.90
2013,05,05,02,01,10.90
2013,05,05,02,02,10.90
2013,05,05,02,03,10.90
2013,05,05,02,04,10.90
2013,05,05,02,05,10.90
2013,05,05,02,06,10.90
2013,05,05,02,07,10.90
2013,05,05,02,08,10.80
2013,05,05,02,09,10.80
2013,05,05,02,10,10.80
2013,05,05,02,11,10.80
2013,05,05,02,12,10.80
2013,05,05,02,13,10.80
2013,05,05,02,14,10.80
2013,05,05,02,15,10.70
2013,05,05,02,16,10.70
2013,05,05,02,17,10.70
2013,05,05,02,18,10.60
2013,05,05,02,19,10.60
2013,05,05,02,20,10.60
2013,05,05,02,21,10.60
2013,05,05,02,22,10.50
2013,05,05,02,23,10.50
2013,05,05,02,24,10.50
2013,05,05,02,25,10.50
2013,05,05,02,26,10.40
2013,05,05,02,27,10.40
2013,05,05,02,28,10.40
2013,05,05,02,29,10.40
2013,05,05,02,30,10.40
2013,05,05,02,31,10.40
2013,05,05,02,32,10.40
2013,05,05,02,33,10.40
2013,05,05,02,34,10.40
2013,05,05,02,35,10.40
2013,05,05,02,36,10.40
2013,05,05,02,37,10.40
2013,05,05,02,38,10.40
2013,05,05,02,39,10.40
2013,05,05,02,40,10.40
2013,05,05,02,41,10.40
2013,05,05,02,42,10.40
2013,05,05,02,43,10.40
2013,05,05,02,44,10.40
2013,05,05,02,45,10.40
2013,05,05,02,46,10.40
2013,05,05,02,47,10.40
2013,05,05,02,48,10.30
2013,05,05,02,49,10.30
2013,05,05,02,50,10.30
2013,05,05,02,51,10.30
2013,05,05,02,52,10.30
2013,05,05,02,53,10.20
2013,05,05,02,54,10.20
2013,05,05,02,55,10.20
2013,05,05,02,56,10.20
2013,05,05,02,57,10.20
2013,05,05,02,58,10.20
2013,05,05,02,59,10.10
2013,05,05,03,00,10.10
2013,05,05,03,01,10.10
2013,05,05,03,02,10.10
2013,05,05,03,03,10.00
2013,05,05,03,04,10.00
2013,05,05,03,05,10.00
2013,05,05,03,06,9.90
2013,05,05,03,07,9.90
2013,05,05,03,08,9.90
2013,05,05,03,09,9.90
2013,05,05,03,10,9.90
2013,05,05,03,11,9.90
2013,05,05,03,12,9.90
2013,05,05,03,13,9.80
2013,05,05,03,14,9.80
2013,05,05,03,15,9.80
2013,05,05,03,16,9.80
2013,05,05,03,17,9.80
2013,05,05,03,18,9.70
2013,05,05,03,19,9.70
2013,05,05,03,20,9.70
2013,05,05,03,21,9.70
2013,05,05,03,22,9.60
2013,05,05,03,23,9.60
2013,05,05,03,24,9.60
2013,05,05,03,25,9.60
2013,05,05,03,26,9.60
2013,05,05,03,27,9.60
2013,05,05,03,28,9.60
2013,05,05,03,29,9.50
2013,05,05,03,30,9.50
2013,05,05,03,31,9.50
2013,05,05,03,32,9.50
2013,05,05,03,33,9.40
2013,05,05,03,34,9.40
2013,05,05,03,35,9.50
2013,05,05,03,36,9.50
2013,05,05,03,37,9.50
2013,05,05,03,38,9.50
2013,05,05,03,39,9.60
2013,05,05,03,40,9.50
2013,05,05,03,41,9.60
2013,05,05,03,42,9.60
2013,05,05,03,43,9.60
2013,05,05,03,44,9.60
2013,05,05,03,45,9.60
2013,05,05,03,46,9.60
2013,05,05,03,47,9.60
2013,05,05,03,48,9.50
2013,05,05,03,49,9.50
2013,05,05,03,50,9.50
2013,05,05,03,51,9.50
2013,05,05,03,52,9.40
2013,05,05,03,53,9.40
2013,05,05,03,54,9.40
2013,05,05,03,55,9.40
2013,05,05,03,56,9.40
2013,05,05,03,57,9.30
2013,05,05,03,58,9.30
2013,05,05,03,59,9.30
2013,05,05,04,00,9.30
2013,05,05,04,01,9.20
2013,05,05,04,02,9.20
2013,05,05,04,03,9.20
2013,05,05,04,04,9.20
2013,05,05,04,05,9.10
2013,05,05,04,06,9.10
2013,05,05,04,07,9.10
2013,05,05,04,08,9.10
2013,05,05,04,09,9.10
2013,05,05,04,10,9.10
2013,05,05,04,11,9.00
2013,05,05,04,12,9.00
2013,05,05,04,13,9.00
2013,05,05,04,14,9.00
2013,05,05,04,15,9.00
2013,05,05,04,16,8.90
2013,05,05,04,17,9.00
2013,05,05,04,18,8.90
2013,05,05,04,19,8.90
2013,05,05,04,20,8.90
2013,05,05,04,21,8.90
2013,05,05,04,22,8.90
2013,05,05,04,23,8.90
2013,05,05,04,24,8.90
2013,05,05,04,25,8.90
2013,05,05,04,26,8.90
2013,05,05,04,27,8.90
2013,05,05,04,28,8.90
2013,05,05,04,29,8.90
2013,05,05,04,30,8.90
2013,05,05,04,31,8.80
2013,05,05,04,32,8.80
2013,05,05,04,33,8.80
2013,05,05,04,34,8.80
2013,05,05,04,35,8.70
2013,05,05,04,36,8.70
2013,05,05,04,37,8.70
2013,05,05,04,38,8.60
2013,05,05,04,39,8.60
2013,05,05,04,40,8.60
2013,05,05,04,41,8.60
2013,05,05,04,42,8.60
2013,05,05,04,43,8.60
2013,05,05,04,44,8.60
2013,05,05,04,45,8.60
2013,05,05,04,46,8.60
2013,05,05,04,47,8.60
2013,05,05,04,48,8.60
2013,05,05,04,49,8.60
2013,05,05,04,50,8.60
2013,05,05,04,51,8.60
2013,05,05,04,52,8.60
2013,05,05,04,53,8.60
2013,05,05,04,54,8.60
2013,05,05,04,55,8.50
2013,05,05,04,56,8.50
2013,05,05,04,57,8.50
2013,05,05,04,58,8.50
2013,05,05,04,59,8.50
2013,05,05,05,00,8.50
2013,05,05,05,01,8.50
2013,05,05,05,02,8.50
2013,05,05,05,03,8.50
2013,05,05,05,04,8.50
2013,05,05,05,05,8.40
2013,05,05,05,06,8.50
2013,05,05,05,07,8.40
2013,05,05,05,08,8.40
2013,05,05,05,09,8.40
2013,05,05,05,10,8.50
2013,05,05,05,11,8.50
2013,05,05,05,12,8.50
2013,05,05,05,13,8.40
2013,05,05,05,14,8.40
2013,05,05,05,15,8.40
2013,05,05,05,16,8.40
2013,05,05,05,17,8.40
2013,05,05,05,18,8.40
2013,05,05,05,19,8.40
2013,05,05,05,20,8.40
2013,05,05,05,21,8.30
2013,05,05,05,22,8.30
2013,05,05,05,23,8.30
2013,05,05,05,24,8.30
2013,05,05,05,25,8.30
2013,05,05,05,26,8.30
2013,05,05,05,27,8.20
2013,05,05,05,28,8.20
2013,05,05,05,29,8.20
2013,05,05,05,30,8.20
2013,05,05,05,31,8.20
2013,05,05,05,32,8.10
2013,05,05,05,33,8.10
2013,05,05,05,34,8.10
2013,05,05,05,35,8.10
2013,05,05,05,36,8.00
2013,05,05,05,37,8.00
2013,05,05,05,38,8.00
2013,05,05,05,39,8.00
2013,05,05,05,40,7.90
2013,05,05,05,41,7.90
2013,05,05,05,42,7.90
2013,05,05,05,43,7.90
2013,05,05,05,44,7.90
2013,05,05,05,45,7.80
2013,05,05,05,46,7.80
2013,05,05,05,47,7.80
2013,05,05,05,48,7.80
2013,05,05,05,49,7.80
2013,05,05,05,50,7.80
2013,05,05,05,51,7.80
2013,05,05,05,52,7.80
2013,05,05,05,53,7.80
2013,05,05,05,54,7.80
2013,05,05,05,55,7.70
2013,05,05,05,56,7.70
2013,05,05,05,57,7.70
2013,05,05,05,58,7.70
2013,05,05,05,59,7.70
2013,05,05,06,00,7.70
2013,05,05,06,01,7.60
2013,05,05,06,02,7.60
2013,05,05,06,03,7.60
2013,05,05,06,04,7.60
2013,05,05,06,05,7.60
2013,05,05,06,06,7.60
2013,05,05,06,07,7.60
2013,05,05,06,08,7.60
2013,05,05,06,09,7.60
2013,05,05,06,10,7.60
2013,05,05,06,11,7.60
2013,05,05,06,12,7.60
2013,05,05,06,13,7.60
2013,05,05,06,14,7.60
2013,05,05,06,15,7.60
2013,05,05,06,16,7.60
2013,05,05,06,17,7.60
2013,05,05,06,18,7.70
2013,05,05,06,19,7.70
2013,05,05,06,20,7.70
2013,05,05,06,21,7.70
2013,05,05,06,22,7.70
2013,05,05,06,23,7.70
2013,05,05,06,24,7.70
2013,05,05,06,25,7.80
2013,05,05,06,26,7.70
2013,05,05,06,27,7.70
2013,05,05,06,28,7.80
2013,05,05,06,29,7.80
2013,05,05,06,30,7.80
2013,05,05,06,31,7.80
2013,05,05,06,32,7.80
2013,05,05,06,33,7.80
2013,05,05,06,34,7.80
2013,05,05,06,35,7.80
2013,05,05,06,36,7.80
2013,05,05,06,37,7.90
2013,05,05,06,38,7.90
2013,05,05,06,39,7.90
2013,05,05,06,40,7.90
2013,05,05,06,41,7.90
2013,05,05,06,42,8.00
2013,05,05,06,43,8.00
2013,05,05,06,44,8.00
2013,05,05,06,45,8.00
2013,05,05,06,46,8.00
2013,05,05,06,47,8.00
2013,05,05,06,48,8.00
2013,05,05,06,49,8.00
2013,05,05,06,50,8.00
2013,05,05,06,51,8.00
2013,05,05,06,52,8.00
2013,05,05,06,53,8.00
2013,05,05,06,54,8.00
2013,05,05,06,55,8.00
2013,05,05,06,56,8.10
2013,05,05,06,57,8.10
2013,05,05,06,58,8.10
2013,05,05,06,59,8.10
2013,05,05,07,00,8.20
2013,05,05,07,01,8.20
2013,05,05,07,02,8.30
2013,05,05,07,03,8.40
2013,05,05,07,04,8.50
2013,05,05,07,05,8.50
2013,05,05,07,06,8.60
2013,05,05,07,07,8.70
2013,05,05,07,08,8.80
2013,05,05,07,09,8.80
2013,05,05,07,10,8.90
2013,05,05,07,11,9.00
2013,05,05,07,12,9.10
2013,05,05,07,13,9.20
2013,05,05,07,14,9.20
2013,05,05,07,15,9.30
2013,05,05,07,16,9.40
2013,05,05,07,17,9.50
2013,05,05,07,18,9.60
2013,05,05,07,19,9.70
2013,05,05,07,20,9.80
2013,05,05,07,21,9.90
2013,05,05,07,22,9.90
2013,05,05,07,23,10.00
2013,05,05,07,24,10.00
2013,05,05,07,25,10.10
2013,05,05,07,26,10.10
2013,05,05,07,27,10.10
2013,05,05,07,28,10.10
2013,05,05,07,29,10.10
2013,05,05,07,30,10.20
2013,05,05,07,31,10.20
2013,05,05,07,32,10.20
2013,05,05,07,33,10.20
2013,05,05,07,34,10.30
2013,05,05,07,35,10.30
2013,05,05,07,36,10.40
2013,05,05,07,37,10.50
2013,05,05,07,38,10.60
2013,05,05,07,39,10.70
2013,05,05,07,40,10.80
2013,05,05,07,41,10.80
2013,05,05,07,42,10.80
2013,05,05,07,43,10.90
2013,05,05,07,44,10.90
2013,05,05,07,45,10.90
2013,05,05,07,46,10.90
2013,05,05,07,47,10.90
2013,05,05,07,48,10.90
2013,05,05,07,49,10.90
2013,05,05,07,50,10.90
2013,05,05,07,51,10.90
2013,05,05,07,52,11.00
2013,05,05,07,53,11.00
2013,05,05,07,54,11.10
2013,05,05,07,55,11.10
2013,05,05,07,56,11.20
2013,05,05,07,57,11.20
2013,05,05,07,58,11.30
2013,05,05,07,59,11.30
2013,05,05,08,00,11.40
2013,05,05,08,01,11.40
2013,05,05,08,02,11.50
2013,05,05,08,03,11.60
2013,05,05,08,04,11.60
2013,05,05,08,05,11.70
2013,05,05,08,06,11.80
2013,05,05,08,07,11.90
2013,05,05,08,08,12.00
2013,05,05,08,09,12.00
2013,05,05,08,10,12.10
2013,05,05,08,11,12.20
2013,05,05,08,12,12.20
2013,05,05,08,13,12.30
2013,05,05,08,14,12.30
2013,05,05,08,15,12.40
2013,05,05,08,16,12.50
2013,05,05,08,17,12.70
2013,05,05,08,18,12.80
2013,05,05,08,19,12.80
2013,05,05,08,20,12.90
2013,05,05,08,21,13.00
2013,05,05,08,22,13.00
2013,05,05,08,23,13.10
2013,05,05,08,24,13.20
2013,05,05,08,25,13.20
2013,05,05,08,26,13.20
2013,05,05,08,27,13.30
2013,05,05,08,28,13.30
2013,05,05,08,29,13.40
2013,05,05,08,30,13.50
2013,05,05,08,31,13.60
2013,05,05,08,32,13.70
2013,05,05,08,33,13.90
2013,05,05,08,34,14.00
2013,05,05,08,35,14.20
2013,05,05,08,36,14.30
2013,05,05,08,37,14.40
2013,05,05,08,38,14.50
2013,05,05,08,39,14.60
2013,05,05,08,40,14.70
2013,05,05,08,41,14.80
2013,05,05,08,42,14.80
2013,05,05,08,43,14.80
2013,05,05,08,44,14.90
2013,05,05,08,45,15.00
2013,05,05,08,46,15.00
2013,05,05,08,47,15.10
2013,05,05,08,48,15.20
2013,05,05,08,49,15.30
2013,05,05,08,50,15.40
2013,05,05,08,51,15.50
2013,05,05,08,52,15.70
2013,05,05,08,53,15.80
2013,05,05,08,54,15.90
2013,05,05,08,55,15.90
2013,05,05,08,56,15.90
2013,05,05,08,57,16.00
2013,05,05,08,58,16.00
2013,05,05,08,59,16.00
2013,05,05,09,00,16.00
2013,05,05,09,01,16.00
2013,05,05,09,02,16.00
2013,05,05,09,03,15.90
2013,05,05,09,04,15.90
2013,05,05,09,05,15.90
2013,05,05,09,06,15.90
2013,05,05,09,07,15.90
2013,05,05,09,08,16.00
2013,05,05,09,09,16.00
2013,05,05,09,10,16.10
2013,05,05,09,11,16.10
2013,05,05,09,12,16.10
2013,05,05,09,13,16.00
2013,05,05,09,14,16.00
2013,05,05,09,15,16.00
2013,05,05,09,16,16.00
2013,05,05,09,17,16.10
2013,05,05,09,18,16.20
2013,05,05,09,19,16.20
2013,05,05,09,20,16.40
2013,05,05,09,21,16.50
2013,05,05,09,22,16.70
2013,05,05,09,23,16.80
2013,05,05,09,24,17.00
2013,05,05,09,25,17.00
2013,05,05,09,26,17.10
2013,05,05,09,27,17.10
2013,05,05,09,28,17.10
2013,05,05,09,29,17.10
2013,05,05,09,30,17.10
2013,05,05,09,31,17.10
2013,05,05,09,32,17.20
2013,05,05,09,33,17.20
2013,05,05,09,34,17.30
2013,05,05,09,35,17.40
2013,05,05,09,36,17.40
2013,05,05,09,37,17.40
2013,05,05,09,38,17.50
2013,05,05,09,39,17.50
2013,05,05,09,40,17.60
2013,05,05,09,41,17.60
2013,05,05,09,42,17.70
2013,05,05,09,43,17.80
2013,05,05,09,44,17.80
2013,05,05,09,45,17.90
2013,05,05,09,46,18.00
2013,05,05,09,47,18.00
2013,05,05,09,48,18.10
2013,05,05,09,49,18.10
2013,05,05,09,50,18.20
2013,05,05,09,51,18.30
2013,05,05,09,52,18.40
2013,05,05,09,53,18.50
2013,05,05,09,54,18.60
2013,05,05,09,55,18.70
2013,05,05,09,56,18.80
2013,05,05,09,57,18.90
2013,05,05,09,58,19.00
2013,05,05,09,59,19.10
2013,05,05,10,00,19.20
2013,05,05,10,01,19.30
2013,05,05,10,02,19.30
2013,05,05,10,03,19.40
2013,05,05,10,04,19.50
2013,05,05,10,05,19.50
2013,05,05,10,06,19.60
2013,05,05,10,07,19.50
2013,05,05,10,08,19.50
2013,05,05,10,09,19.50
2013,05,05,10,10,19.40
2013,05,05,10,11,19.50
2013,05,05,10,12,19.50
2013,05,05,10,13,19.60
2013,05,05,10,14,19.60
2013,05,05,10,15,19.70
2013,05,05,10,16,19.70
2013,05,05,10,17,19.70
2013,05,05,10,18,19.80
2013,05,05,10,19,19.80
2013,05,05,10,20,19.80
2013,05,05,10,21,19.80
2013,05,05,10,22,19.80
2013,05,05,10,23,19.80
2013,05,05,10,24,19.80
2013,05,05,10,25,19.80
2013,05,05,10,26,19.90
2013,05,05,10,27,20.00
2013,05,05,10,28,20.10
2013,05,05,10,29,20.30
2013,05,05,10,30,20.40
2013,05,05,10,31,20.50
2013,05,05,10,32,20.70
2013,05,05,10,33,20.70
2013,05,05,10,34,20.80
2013,05,05,10,35,20.80
2013,05,05,10,36,20.90
2013,05,05,10,37,21.00
2013,05,05,10,38,21.00
2013,05,05,10,39,20.90
2013,05,05,10,40,20.90
2013,05,05,10,41,20.90
2013,05,05,10,42,20.90
2013,05,05,10,43,21.00
2013,05,05,10,44,21.00
2013,05,05,10,45,21.00
2013,05,05,10,46,21.10
2013,05,05,10,47,21.10
2013,05,05,10,48,21.10
2013,05,05,10,49,21.00
2013,05,05,10,50,21.00
2013,05,05,10,51,20.90
2013,05,05,10,52,20.90
2013,05,05,10,53,20.80
2013,05,05,10,54,20.80
2013,05,05,10,55,20.80
2013,05,05,10,56,20.80
2013,05,05,10,57,20.80
2013,05,05,10,58,20.80
2013,05,05,10,59,20.80
2013,05,05,11,00,20.90
2013,05,05,11,01,21.00
2013,05,05,11,02,21.00
2013,05,05,11,03,21.10
2013,05,05,11,04,21.20
2013,05,05,11,05,21.10
2013,05,05,11,06,21.10
2013,05,05,11,07,21.20
2013,05,05,11,08,21.20
2013,05,05,11,09,21.30
2013,05,05,11,10,21.30
2013,05,05,11,11,21.40
2013,05,05,11,12,21.50
2013,05,05,11,13,21.60
2013,05,05,11,14,21.60
2013,05,05,11,15,21.70
2013,05,05,11,16,22.10
2013,05,05,11,17,22.20
2013,05,05,11,18,22.20
2013,05,05,11,19,22.30
2013,05,05,11,20,22.30
2013,05,05,11,21,22.40
2013,05,05,11,22,22.40
2013,05,05,11,23,22.40
2013,05,05,11,24,22.50
2013,05,05,11,25,22.60
2013,05,05,11,26,22.60
2013,05,05,11,27,22.70
2013,05,05,11,28,22.70
2013,05,05,11,29,22.80
2013,05,05,11,30,22.80
2013,05,05,11,31,22.80
2013,05,05,11,32,22.80
2013,05,05,11,33,22.80
2013,05,05,11,34,22.80
2013,05,05,11,35,22.80
2013,05,05,11,36,22.90
2013,05,05,11,37,23.00
2013,05,05,11,38,23.10
2013,05,05,11,39,23.10
2013,05,05,11,40,23.10
2013,05,05,11,41,23.10
2013,05,05,11,42,23.10
2013,05,05,11,43,23.20
2013,05,05,11,44,23.20
2013,05,05,11,45,23.30
2013,05,05,11,46,23.30
2013,05,05,11,47,23.40
2013,05,05,11,48,23.40
2013,05,05,11,49,23.40
2013,05,05,11,50,23.50
2013,05,05,11,51,23.60
2013,05,05,11,52,23.70
2013,05,05,11,53,23.80
2013,05,05,11,54,23.90
2013,05,05,11,55,24.00
2013,05,05,11,56,24.00
2013,05,05,11,57,24.10
2013,05,05,11,58,24.20
2013,05,05,11,59,24.30
2013,05,05,12,00,24.40
2013,05,05,12,01,24.40
2013,05,05,12,02,24.40
2013,05,05,12,03,24.50
2013,05,05,12,04,24.60
2013,05,05,12,05,24.70
2013,05,05,12,06,24.80
2013,05,05,12,07,24.90
2013,05,05,12,08,25.00
2013,05,05,12,09,25.00
2013,05,05,12,10,25.00
2013,05,05,12,11,25.10
2013,05,05,12,12,25.10
2013,05,05,12,13,25.10
2013,05,05,12,14,25.20
2013,05,05,12,15,25.20
2013,05,05,12,16,25.20
2013,05,05,12,17,25.30
2013,05,05,12,18,25.40
2013,05,05,12,19,25.50
2013,05,05,12,20,25.60
2013,05,05,12,21,25.70
2013,05,05,12,22,25.80
2013,05,05,12,23,25.80
2013,05,05,12,24,25.80
2013,05,05,12,25,25.80
2013,05,05,12,26,25.80
2013,05,05,12,27,25.80
2013,05,05,12,28,25.80
2013,05,05,12,29,25.90
2013,05,05,12,30,25.90
2013,05,05,12,31,25.90
2013,05,05,12,32,25.90
2013,05,05,12,33,25.90
2013,05,05,12,34,25.90
2013,05,05,12,35,26.00
2013,05,05,12,36,26.10
2013,05,05,12,37,26.10
2013,05,05,12,38,26.10
2013,05,05,12,39,26.10
2013,05,05,12,40,26.20
2013,05,05,12,41,26.20
2013,05,05,12,42,26.30
2013,05,05,12,43,26.30
2013,05,05,12,44,26.40
2013,05,05,12,45,26.50
2013,05,05,12,46,26.50
2013,05,05,12,47,26.60
2013,05,05,12,48,26.60
2013,05,05,12,49,26.60
2013,05,05,12,50,26.70
2013,05,05,12,51,26.80
2013,05,05,12,52,26.80
2013,05,05,12,53,26.80
2013,05,05,12,54,26.80
2013,05,05,12,55,26.70
2013,05,05,12,56,26.80
2013,05,05,12,57,26.80
2013,05,05,12,58,26.80
2013,05,05,12,59,26.80
2013,05,05,13,00,26.90
2013,05,05,13,01,26.90
2013,05,05,13,02,26.90
2013,05,05,13,03,27.00
2013,05,05,13,04,27.00
2013,05,05,13,05,27.10
2013,05,05,13,06,27.20
2013,05,05,13,07,27.40
2013,05,05,13,08,27.50
2013,05,05,13,09,27.60
2013,05,05,13,10,27.70
2013,05,05,13,11,27.80
2013,05,05,13,12,27.90
2013,05,05,13,13,28.00
2013,05,05,13,14,28.10
2013,05,05,13,15,28.10
2013,05,05,13,16,28.20
2013,05,05,13,17,28.30
2013,05,05,13,18,28.40
2013,05,05,13,19,28.40
2013,05,05,13,20,28.50
2013,05,05,13,21,28.50
2013,05,05,13,22,28.50
2013,05,05,13,23,28.50
2013,05,05,13,24,28.60
2013,05,05,13,25,28.60
2013,05,05,13,26,28.60
2013,05,05,13,27,28.70
2013,05,05,13,28,28.70
2013,05,05,13,29,28.70
2013,05,05,13,30,28.60
2013,05,05,13,31,28.60
2013,05,05,13,32,28.50
2013,05,05,13,33,28.50
2013,05,05,13,34,28.50
2013,05,05,13,35,28.50
2013,05,05,13,36,28.60
2013,05,05,13,37,28.60
2013,05,05,13,38,28.70
2013,05,05,13,39,28.70
2013,05,05,13,40,28.70
2013,05,05,13,41,28.70
2013,05,05,13,42,28.70
2013,05,05,13,43,28.70
2013,05,05,13,44,28.70
2013,05,05,13,45,28.70
2013,05,05,13,46,28.70
2013,05,05,13,47,28.80
2013,05,05,13,48,28.90
2013,05,05,13,49,28.90
2013,05,05,13,50,29.00
2013,05,05,13,51,29.00
2013,05,05,13,52,29.00
2013,05,05,13,53,29.10
2013,05,05,13,54,29.10
2013,05,05,13,55,29.20
2013,05,05,13,56,29.20
2013,05,05,13,57,29.20
2013,05,05,13,58,29.20
2013,05,05,13,59,29.20
2013,05,05,14,00,29.10
2013,05,05,14,01,29.10
2013,05,05,14,02,29.00
2013,05,05,14,03,28.90
2013,05,05,14,04,28.90
2013,05,05,14,05,28.90
2013,05,05,14,06,28.90
2013,05,05,14,07,29.00
2013,05,05,14,08,29.00
2013,05,05,14,09,29.10
2013,05,05,14,10,29.10
2013,05,05,14,11,29.20
2013,05,05,14,12,29.30
2013,05,05,14,13,29.30
2013,05,05,14,14,29.40
2013,05,05,14,15,29.30
2013,05,05,14,16,29.30
2013,05,05,14,17,29.30
2013,05,05,14,18,29.30
2013,05,05,14,19,29.30
2013,05,05,14,20,29.30
2013,05,05,14,21,29.40
2013,05,05,14,22,29.40
2013,05,05,14,23,29.30
2013,05,05,14,24,29.30
2013,05,05,14,25,29.30
2013,05,05,14,26,29.40
2013,05,05,14,27,29.40
2013,05,05,14,28,29.40
2013,05,05,14,29,29.40
2013,05,05,14,30,29.40
2013,05,05,14,31,29.40
2013,05,05,14,32,29.50
2013,05,05,14,33,29.50
2013,05,05,14,34,29.50
2013,05,05,14,35,29.40
2013,05,05,14,36,29.40
2013,05,05,14,37,29.40
2013,05,05,14,38,29.40
2013,05,05,14,39,29.40
2013,05,05,14,40,29.30
2013,05,05,14,41,29.30
2013,05,05,14,42,29.30
2013,05,05,14,43,29.30
2013,05,05,14,44,29.30
2013,05,05,14,45,29.30
2013,05,05,14,46,29.20
2013,05,05,14,47,29.20
2013,05,05,14,48,29.30
2013,05,05,14,49,29.30
2013,05,05,14,50,29.40
2013,05,05,14,51,29.40
2013,05,05,14,52,29.50
2013,05,05,14,53,29.60
2013,05,05,14,54,29.60
2013,05,05,14,55,29.60
2013,05,05,14,56,29.60
2013,05,05,14,57,29.50
2013,05,05,14,58,29.40
2013,05,05,14,59,29.30
2013,05,05,15,00,29.30
2013,05,05,15,01,29.30
2013,05,05,15,02,29.20
2013,05,05,15,03,29.20
2013,05,05,15,04,29.10
2013,05,05,15,05,29.00
2013,05,05,15,06,29.00
2013,05,05,15,07,29.00
2013,05,05,15,08,29.00
2013,05,05,15,09,29.00
2013,05,05,15,10,29.00
2013,05,05,15,11,29.10
2013,05,05,15,12,29.10
2013,05,05,15,13,29.10
2013,05,05,15,14,29.10
2013,05,05,15,15,29.10
2013,05,05,15,16,29.10
2013,05,05,15,17,29.10
2013,05,05,15,18,29.10
2013,05,05,15,19,29.10
2013,05,05,15,20,29.20
2013,05,05,15,21,29.20
2013,05,05,15,22,29.30
2013,05,05,15,23,29.30
2013,05,05,15,24,29.40
2013,05,05,15,25,29.40
2013,05,05,15,26,29.40
2013,05,05,15,27,29.30
2013,05,05,15,28,29.30
2013,05,05,15,29,29.30
2013,05,05,15,30,29.30
2013,05,05,15,31,29.30
2013,05,05,15,32,29.30
2013,05,05,15,33,29.30
2013,05,05,15,34,29.30
2013,05,05,15,35,29.30
2013,05,05,15,36,29.30
2013,05,05,15,37,29.40
2013,05,05,15,38,29.40
2013,05,05,15,39,29.40
2013,05,05,15,40,29.30
2013,05,05,15,41,29.30
2013,05,05,15,42,29.30
2013,05,05,15,43,29.30
2013,05,05,15,44,29.30
2013,05,05,15,45,29.30
2013,05,05,15,46,29.40
2013,05,05,15,47,29.40
2013,05,05,15,48,29.40
2013,05,05,15,49,29.50
2013,05,05,15,50,29.50
2013,05,05,15,51,29.50
2013,05,05,15,52,29.50
2013,05,05,15,53,29.50
2013,05,05,15,54,29.50
2013,05,05,15,55,29.50
2013,05,05,15,56,29.50
2013,05,05,15,57,29.50
2013,05,05,15,58,29.60
2013,05,05,15,59,29.60
2013,05,05,16,00,29.50
2013,05,05,16,01,29.50
2013,05,05,16,02,29.40
2013,05,05,16,03,29.40
2013,05,05,16,04,29.40
2013,05,05,16,05,29.40
2013,05,05,16,06,29.40
2013,05,05,16,07,29.40
2013,05,05,16,08,29.40
2013,05,05,16,09,29.40
2013,05,05,16,10,29.40
2013,05,05,16,11,29.30
2013,05,05,16,12,29.30
2013,05,05,16,13,29.30
2013,05,05,16,14,29.40
2013,05,05,16,15,29.40
2013,05,05,16,16,29.40
2013,05,05,16,17,29.40
2013,05,05,16,18,29.40
2013,05,05,16,19,29.40
2013,05,05,16,20,29.40
2013,05,05,16,21,29.40
2013,05,05,16,22,29.50
2013,05,05,16,23,29.50
2013,05,05,16,24,29.60
2013,05,05,16,25,29.60
2013,05,05,16,26,29.70
2013,05,05,16,27,29.70
2013,05,05,16,28,29.70
2013,05,05,16,29,29.70
2013,05,05,16,30,29.70
2013,05,05,16,31,29.70
2013,05,05,16,32,29.70
2013,05,05,16,33,29.70
2013,05,05,16,34,29.70
2013,05,05,16,35,29.80
2013,05,05,16,36,29.80
2013,05,05,16,37,29.80
2013,05,05,16,38,29.80
2013,05,05,16,39,29.80
2013,05,05,16,40,29.80
2013,05,05,16,41,29.90
2013,05,05,16,42,30.00
2013,05,05,16,43,30.10
2013,05,05,16,44,30.20
2013,05,05,16,45,30.30
2013,05,05,16,46,30.40
2013,05,05,16,47,30.40
2013,05,05,16,48,30.50
2013,05,05,16,49,30.50
2013,05,05,16,50,30.60
2013,05,05,16,51,30.60
2013,05,05,16,52,30.50
2013,05,05,16,53,30.40
2013,05,05,16,54,30.30
2013,05,05,16,55,30.30
2013,05,05,16,56,30.20
2013,05,05,16,57,30.20
2013,05,05,16,58,30.30
2013,05,05,16,59,30.30
2013,05,05,17,00,30.40
2013,05,05,17,01,30.40
2013,05,05,17,02,30.40
2013,05,05,17,03,30.30
2013,05,05,17,04,30.30
2013,05,05,17,05,30.30
2013,05,05,17,06,30.20
2013,05,05,17,07,30.20
2013,05,05,17,08,30.20
2013,05,05,17,09,30.20
2013,05,05,17,10,30.20
2013,05,05,17,11,30.20
2013,05,05,17,12,30.20
2013,05,05,17,13,30.20
2013,05,05,17,14,30.20
2013,05,05,17,15,30.20
2013,05,05,17,16,30.20
2013,05,05,17,17,30.20
2013,05,05,17,18,30.20
2013,05,05,17,19,30.20
2013,05,05,17,20,30.20
2013,05,05,17,21,30.20
2013,05,05,17,22,30.20
2013,05,05,17,23,30.30
2013,05,05,17,24,30.30
2013,05,05,17,25,30.30
2013,05,05,17,26,30.30
2013,05,05,17,27,30.30
2013,05,05,17,28,30.30
2013,05,05,17,29,30.30
2013,05,05,17,30,30.30